Regional Weather Roundup
Issued by NWS

Home | Current Version | Previous Version | Text Only | Print | Product List | Glossary On
Versions: 1 2 3 4 5 6 7 8 9 10 11 12 13 14 15 16 17 18 19 20 21 22 23 24 25 26 27 28 29 30 31 32 33 34 35 36 37 38 39 40 41 42 43 44 45 46 47 48 49 50
270
ASUS43 KLSX 180007
RWRMO

WEATHER SUMMARY FOR MISSOURI
NATIONAL WEATHER SERVICE SPRINGFIELD MO
600 PM CST TUE JAN 17 2017

NOTE: "FAIR" INDICATES FEW OR NO CLOUDS BELOW 12,000 FEET WITH NO
       SIGNIFICANT WEATHER AND/OR OBSTRUCTIONS TO VISIBILITY.
       CURRENT SKY AND/OR WEATHER CONDITIONS ARE NOT AVAILABLE FOR
       CHILLICOTHE AND FARMINGTON.

MOZ001>031-035>038-043-044-053-054-180100-
...NORTHERN AND WESTERN MISSOURI...

CITY           SKY/WX    TMP DP  RH WIND       PRES   REMARKS
KANSAS CTY INT PTCLDY    34  30  85 N6        30.13R WCI  29
6HR MIN TEMP:  34; 6HR MAX TEMP:  38;

KANSAS C DTWN  CLEAR     38  33  82 CALM      30.14R
6HR MIN TEMP:  37; 6HR MAX TEMP:  40;

LEE`S SUMMIT   CLOUDY    38  34  85 CALM      30.14R
6HR MIN TEMP:  36; 6HR MAX TEMP:  39;

ST JOSEPH      PTCLDY    32  31  96 N3        30.14S
6HR MIN TEMP:  32; 6HR MAX TEMP:  37;

CHILLICOTHE      N/A     37  34  89 NW5       30.15R
6HR MIN TEMP:  36; 6HR MAX TEMP:  38;

KIRKSVILLE     CLOUDY    37  35  92 W7        30.11S FOG
6HR MIN TEMP:  36; 6HR MAX TEMP:  37;


$$
MOZ066>068-077>081-088>096-101>105-180100-
...SOUTHWEST MISSOURI...

CITY           SKY/WX    TMP DP  RH WIND       PRES   REMARKS
SPRINGFIELD    CLOUDY    38  35  89 W6        30.16R
6HR MIN TEMP:  38; 6HR MAX TEMP:  39;

JOPLIN         CLOUDY    39  36  89 CALM      30.19R
6HR MIN TEMP:  38; 6HR MAX TEMP:  40;

BRANSON        CLOUDY    39  36  87 CALM      30.17R

$$
MOZ032>034-039>042-045>050-055>058-069>072-180100-
...CENTRAL MISSOURI...

CITY           SKY/WX    TMP DP  RH WIND       PRES   REMARKS
COLUMBIA       CLOUDY    38  37  97 W10       30.14R FOG
6HR MIN TEMP:  38; 6HR MAX TEMP:  39;

JEFFERSON CITY CLOUDY    40  35  83 W8        30.17R
6HR MIN TEMP:  40; 6HR MAX TEMP:  41;

ROLLA          CLOUDY    37  35  92 W10       30.13R WCI  30
6HR MIN TEMP:  37; 6HR MAX TEMP:  40;

SEDALIA        CLOUDY    39  36  89 W5        30.17R
6HR MIN TEMP:  39; 6HR MAX TEMP:  40;

WHITEMAN AFB   CLOUDY    38  38 100 W6        30.15R
WARRENSBURG    CLOUDY    37  34  87 CALM      30.16R
OSAGE BEACH    CLOUDY    39  35  86 W6        30.17R

$$
MOZ051-052-059>065-180100-
...EAST CENTRAL MISSOURI...

CITY           SKY/WX    TMP DP  RH WIND       PRES   REMARKS
ST LOUIS INTL  CLOUDY    42  36  79 W14       30.13R
6HR MIN TEMP:  42; 6HR MAX TEMP:  47; 6HR PCP: TRACE;

SPIRIT OF STL  CLOUDY    41  37  86 W13G20    30.13R
6HR MIN TEMP:  41; 6HR MAX TEMP:  45;

ST CHARLES     CLOUDY    41  37  86 W10       30.13R
6HR MIN TEMP:  41; 6HR MAX TEMP:  44;


$$
MOZ072>076-082>087-097>100-106>115-180100-
...SOUTH CENTRAL AND SOUTHEAST MISSOURI...

CITY           SKY/WX    TMP DP  RH WIND       PRES   REMARKS
CAPE GIRARDEAU CLOUDY    45  40  82 W6        30.15R
6HR MIN TEMP:  44; 6HR MAX TEMP:  45;

FARMINGTON     CLOUDY    42  37  82 W6        30.13R
6HR MIN TEMP:  42; 6HR MAX TEMP:  44;

POPLAR BLUFF   CLOUDY    45  40  82 SW3       30.16R
6HR MIN TEMP:  45; 6HR MAX TEMP:  46;

WEST PLAINS    CLOUDY    41  36  82 W7        30.16R
6HR MIN TEMP:  41; 6HR MAX TEMP:  43;


$$



USA.gov is the U.S. government's official web portal to all federal, state and local government web resources and services.